カタログに戻る

ASTROCAST-0404

運用中通信SSO
NORAD 55112·PAYLOAD·🇨🇭 Switzerland

打ち上げ Jan 3, 2023 から Cape Canaveral Space Force Station

Loading…

次のパス (今後24時間)

TLE

最新Source: Space-Track

元期: Sep 13, 2026, 19:27 UTC

1 55112U 23001DH  26256.81078182  .00017460  00000-0  60246-3 0  9995
2 55112  97.5660 352.4045 0007063  44.2838 315.8966 15.30016452158073

AllMySatでASTROCAST-0404をリアルタイム追跡

Download on the App Store